Volver al catálogo

KUIPER-00439

ActivoComunicacionesLEO
NORAD 68941·PAYLOAD·🇺🇸 United States

Lanzado Apr 30, 2026 desde Guiana Space Centre

Loading…

Próximos Pases (próximas 24 horas)

TLE

ActualizadoSource: CelesTrak SupGP

Época: Sep 14, 2026, 22:03 UTC

1 68941C 26098Y   26257.91890046  .00004817  00000+0  63113-3 0  2575
2 68941  51.9034  18.8808 0000838  76.4189 276.7466 14.79889522    13

Sigue KUIPER-00439 en tiempo real con AllMySat

Download on the App Store